Rugby, ND

5:21 AM CST on February 08, 2016 (GMT -0600)
Rugby Municipal

Weather History for KRUG - November, 2012

Change the Weather History Date:

Thursday, November 22, 2012

  Actual Average Record
Temperature  
Mean Temperature 20 °F -  
Max Temperature 32 °F 27 °F 50 °F (1954)
Min Temperature 6 °F 12 °F -14 °F (2013)
Degree Days  
Heating Degree Days 45    
Moisture  
Dew Point 19 °F    
Average Humidity 93    
Maximum Humidity 100    
Minimum Humidity 79    
Precipitation  
Precipitation 3.85 in - - ()
Sea Level Pressure  
Sea Level Pressure 30.00 in    
Wind  
Wind Speed 15 mph (NW)    
Max Wind Speed 23 mph    
Max Gust Speed 31 mph    
Visibility 6 miles    
Events Rain , Snow    
Averages and records for this station are not official NWS values.
T = Trace of Precipitation, MM = Missing Value Source: NWS Daily Summary

Daily Weather History Graph

Daily Weather History Graph

Search for Another Location

Airport or City:

Trip Planner

Search our weather history database for the weather conditions in past years. The results will help you decide how hot, cold, wet, or windy it might be!

Date:

Astronomy

Nov. 22, 2012 Rise Set
Actual Time 7:58 AM CST 4:53 PM CST
Civil Twilight 7:23 AM CST 5:28 PM CST
Nautical Twilight 6:45 AM CST 6:07 PM CST
Astronomical Twilight 6:07 AM CST 6:44 PM CST
Moon 2:01 PM CST (11/22) 1:56 AM CST (11/22)
Length of Visible Light 10h 04m
Length of Day
8h 54m
Waxing Gibbous, 71% of the Moon is Illuminated
Nov 22
Waxing Gibbous
Nov 28
Full
Dec 6
Last Quarter
Dec 13
New
Dec 19
First Quarter

Hourly Weather History & Observations

Time (CST) Temp. Windchill Dew Point Humidity Pressure Visibility Wind Dir Wind Speed Gust Speed Precip Events Conditions
12:15 AM 32.0 °F 25.6 °F 32.0 °F 100% 29.59 in 5.0 mi North 6.9 mph - N/A   Overcast
12:35 AM 32.0 °F 23.0 °F 32.0 °F 100% 29.63 in 4.0 mi WNW 11.5 mph - N/A   Overcast
12:55 AM 32.0 °F 24.2 °F 32.0 °F 100% 29.64 in 1.8 mi NNW 9.2 mph - N/A   Overcast
1:15 AM 32.0 °F 25.6 °F 32.0 °F 100% 29.65 in 3.0 mi NW 6.9 mph - N/A   Overcast
1:35 AM 32.0 °F 24.2 °F 32.0 °F 100% 29.67 in 3.0 mi NW 9.2 mph - N/A   Overcast
1:55 AM 32.0 °F 23.6 °F 32.0 °F 100% 29.69 in 9.0 mi NNW 10.4 mph - N/A   Overcast
2:15 AM 32.0 °F 23.0 °F 32.0 °F 100% 29.70 in 8.0 mi NW 11.5 mph - N/A   Overcast
2:35 AM 32.0 °F 22.1 °F 32.0 °F 100% 29.70 in 10.0 mi NW 13.8 mph 17.3 mph N/A   Overcast
2:55 AM 28.4 °F 17.0 °F 28.4 °F 100% 29.71 in 10.0 mi NW 15.0 mph 21.9 mph N/A   Overcast
3:15 AM 28.4 °F 15.8 °F 28.4 °F 100% 29.72 in 9.0 mi NW 18.4 mph 23.0 mph N/A   Overcast
3:35 AM 28.4 °F 16.6 °F 28.4 °F 100% 29.73 in 9.0 mi NW 16.1 mph - N/A   Overcast
3:55 AM 28.4 °F 17.0 °F 28.4 °F 100% 29.74 in 10.0 mi NW 15.0 mph - N/A   Overcast
4:15 AM 28.4 °F 17.5 °F 28.4 °F 100% 29.75 in 9.0 mi NW 13.8 mph - N/A   Overcast
4:35 AM 28.4 °F 17.5 °F 28.4 °F 100% 29.76 in 10.0 mi NW 13.8 mph - N/A   Overcast
4:55 AM 28.4 °F 16.6 °F 28.4 °F 100% 29.77 in 10.0 mi NW 16.1 mph - N/A   Overcast
5:15 AM 28.4 °F 15.1 °F 28.4 °F 100% 29.77 in 10.0 mi NW 20.7 mph 28.8 mph N/A   Overcast
5:35 AM 28.4 °F 16.6 °F 26.6 °F 93% 29.78 in 10.0 mi NNW 16.1 mph 24.2 mph N/A   Overcast
5:55 AM 26.6 °F 13.8 °F 26.6 °F 100% 29.79 in 10.0 mi NNW 17.3 mph 24.2 mph N/A   Overcast
6:15 AM 26.6 °F 14.3 °F 26.6 °F 100% 29.79 in 10.0 mi NNW 16.1 mph 19.6 mph N/A   Overcast
6:35 AM 26.6 °F 14.7 °F 26.6 °F 100% 29.81 in 10.0 mi NW 15.0 mph 19.6 mph N/A   Overcast
6:55 AM 26.6 °F 14.7 °F 24.8 °F 93% 29.82 in 10.0 mi NW 15.0 mph - N/A   Overcast
7:15 AM 24.8 °F 11.5 °F 24.8 °F 100% 29.82 in 10.0 mi NNW 17.3 mph 21.9 mph N/A   Overcast
7:35 AM 24.8 °F 12.4 °F 24.8 °F 100% 29.84 in 10.0 mi NW 15.0 mph - N/A   Overcast
7:55 AM 24.8 °F 12.9 °F 23.0 °F 93% 29.85 in 10.0 mi NNW 13.8 mph - N/A   Overcast
8:15 AM 24.8 °F 12.9 °F 23.0 °F 93% 29.86 in 8.0 mi NNW 13.8 mph - N/A   Overcast
8:35 AM 24.8 °F 14.0 °F 21.2 °F 86% 29.89 in 9.0 mi NNW 11.5 mph - N/A Rain Light Freezing Rain
8:55 AM 23.0 °F 10.6 °F 21.2 °F 93% 29.89 in 5.0 mi NNW 13.8 mph - N/A Rain Light Freezing Rain
9:15 AM 23.0 °F 9.6 °F 21.2 °F 93% 29.91 in 3.0 mi NW 16.1 mph - N/A Rain Light Freezing Rain
9:35 AM 23.0 °F 8.7 °F 21.2 °F 93% 29.92 in 4.0 mi NW 18.4 mph 21.9 mph N/A Rain Light Freezing Rain
9:55 AM 23.0 °F 10.1 °F 19.4 °F 86% 29.93 in 1.0 mi NW 15.0 mph 21.9 mph 0.08 in Snow Light Snow
10:15 AM 21.2 °F 6.4 °F 19.4 °F 93% 29.94 in 1.0 mi NW 18.4 mph - 0.12 in Snow Light Snow
10:35 AM 21.2 °F 7.3 °F 19.4 °F 93% 29.96 in 0.8 mi NW 16.1 mph - 0.31 in Snow Light Snow
10:55 AM 21.2 °F 6.0 °F 19.4 °F 93% 29.97 in 0.8 mi NNW 19.6 mph 24.2 mph 0.63 in Snow Light Snow
11:15 AM 19.4 °F 4.1 °F 17.6 °F 93% 29.98 in 1.0 mi NNW 18.4 mph 21.9 mph 0.07 in Snow Light Snow
11:35 AM 21.2 °F 6.8 °F 19.4 °F 93% 29.98 in 1.0 mi NW 17.3 mph - 0.15 in Snow Light Snow
11:55 AM 19.4 °F 4.1 °F 17.6 °F 93% 29.99 in 1.5 mi NW 18.4 mph - 0.21 in Snow Light Snow
12:15 PM 19.4 °F 5.0 °F 17.6 °F 93% 29.99 in 2.0 mi NW 16.1 mph 23.0 mph N/A   Overcast
12:35 PM 19.4 °F 3.6 °F 17.6 °F 93% 30.01 in 2.5 mi NW 19.6 mph 24.2 mph 0.02 in Snow Light Snow
12:55 PM 19.4 °F 2.5 °F 17.6 °F 93% 30.01 in 2.0 mi NW 23.0 mph - 0.05 in Snow Light Snow
1:15 PM 17.6 °F 0.9 °F 15.8 °F 93% 30.02 in 2.0 mi NW 20.7 mph - 0.01 in Snow Light Snow
1:35 PM 17.6 °F 0.5 °F 15.8 °F 93% 30.04 in 1.2 mi NNW 21.9 mph 27.6 mph 0.09 in Snow Light Snow
1:55 PM 17.6 °F 1.7 °F 15.8 °F 93% 30.05 in 1.0 mi NNW 18.4 mph 25.3 mph 0.19 in Snow Light Snow
2:15 PM 17.6 °F 2.7 °F 15.8 °F 93% 30.06 in 0.8 mi NNW 16.1 mph - 0.08 in Snow Light Snow
2:35 PM 17.6 °F 1.3 °F 15.8 °F 93% 30.07 in 0.8 mi NNW 19.6 mph 24.2 mph 0.20 in Snow Light Snow
2:55 PM 17.6 °F 0.9 °F 15.8 °F 93% 30.08 in 0.8 mi NNW 20.7 mph - 0.33 in Snow Light Snow
3:15 PM 17.6 °F 2.2 °F 15.8 °F 93% 30.09 in 0.8 mi NW 17.3 mph - 0.08 in Snow Light Snow
3:35 PM 17.6 °F 1.7 °F 15.8 °F 93% 30.11 in 0.8 mi NW 18.4 mph 23.0 mph 0.27 in Snow Light Snow
3:55 PM 17.6 °F 1.3 °F 15.8 °F 93% 30.13 in 0.5 mi NW 19.6 mph - 0.47 in Snow Snow
4:15 PM 17.6 °F 1.7 °F 15.8 °F 93% 30.14 in 0.5 mi NW 18.4 mph 24.2 mph 0.21 in Snow Snow
4:35 PM 17.6 °F 0.9 °F 15.8 °F 93% 30.16 in 0.8 mi NW 20.7 mph - 0.42 in Snow Light Snow
4:55 PM 15.8 °F -0.6 °F 14.0 °F 93% 30.18 in 0.8 mi NW 18.4 mph 23.0 mph 0.53 in Snow Light Snow
5:15 PM 15.8 °F -0.2 °F 14.0 °F 93% 30.19 in 1.0 mi NW 17.3 mph 23.0 mph 0.05 in Snow Light Snow
5:35 PM 15.8 °F -0.6 °F 14.0 °F 93% 30.21 in 1.8 mi NW 18.4 mph 21.9 mph 0.14 in Snow Light Snow
5:55 PM 15.8 °F -0.6 °F 14.0 °F 93% 30.22 in 1.8 mi NW 18.4 mph 27.6 mph 0.27 in Snow Light Snow
6:15 PM 15.8 °F -1.5 °F 14.0 °F 93% 30.23 in 1.5 mi NW 20.7 mph 26.5 mph 0.16 in Snow Light Snow
6:35 PM 15.8 °F -2.3 °F 14.0 °F 93% 30.24 in 1.5 mi NW 23.0 mph 29.9 mph 0.45 in Snow Light Snow
6:55 PM 15.8 °F -1.5 °F 14.0 °F 93% 30.25 in 1.5 mi NW 20.7 mph 28.8 mph 0.73 in Snow Light Snow
7:15 PM 15.8 °F -1.5 °F 14.0 °F 93% 30.26 in 1.2 mi NW 20.7 mph 26.5 mph 0.17 in Snow Light Snow
7:35 PM 15.8 °F -1.9 °F 12.2 °F 86% 30.27 in 2.0 mi NW 21.9 mph 26.5 mph 0.35 in Snow Light Snow
7:55 PM 14.0 °F -3.9 °F 10.4 °F 86% 30.28 in 9.0 mi NNW 20.7 mph 31.1 mph 0.36 in   Scattered Clouds
8:15 PM 14.0 °F -3.9 °F 8.6 °F 79% 30.29 in 10.0 mi NW 20.7 mph 28.8 mph N/A   Clear
8:35 PM 14.0 °F -3.4 °F 8.6 °F 79% 30.30 in 10.0 mi NW 19.6 mph 26.5 mph N/A   Clear
8:55 PM 14.0 °F -3.9 °F 8.6 °F 79% 30.31 in 10.0 mi NW 20.7 mph 26.5 mph N/A   Clear
9:15 PM 12.2 °F -5.8 °F 8.6 °F 85% 30.32 in 10.0 mi NW 19.6 mph 26.5 mph N/A   Clear
9:35 PM 12.2 °F -6.7 °F 6.8 °F 79% 30.33 in 10.0 mi NW 21.9 mph 29.9 mph N/A   Clear
9:55 PM 10.4 °F -9.1 °F 6.8 °F 85% 30.34 in 10.0 mi NW 21.9 mph 28.8 mph N/A   Clear
10:15 PM 10.4 °F -7.2 °F 5.0 °F 79% 30.35 in 10.0 mi NW 17.3 mph 23.0 mph N/A   Clear
10:35 PM 10.4 °F -7.2 °F 5.0 °F 79% 30.36 in 10.0 mi NW 17.3 mph 27.6 mph N/A   Clear
10:55 PM 8.6 °F -8.9 °F 5.0 °F 85% 30.37 in 10.0 mi NW 16.1 mph 21.9 mph N/A   Scattered Clouds
11:15 PM 8.6 °F -11.9 °F 5.0 °F 85% 30.37 in 10.0 mi NW 23.0 mph 28.8 mph N/A   Scattered Clouds
11:35 PM 8.6 °F -10.5 °F 3.2 °F 79% 30.37 in 10.0 mi NW 19.6 mph 25.3 mph N/A   Clear
11:55 PM 6.8 °F -12.9 °F 3.2 °F 85% 30.38 in 10.0 mi NW 19.6 mph - N/A   Clear